FENGYUN 1C DEB, 31097

Orbit data source: Space-Track

FENGYUN 1C DEB, 31097 is space debris in SSO originally from a launch on Mon, 10 May 1999 UTC launched from the Taiyaun Space Center, China (TSC). Fengyun 1C debris stems from the Chinese weather satellite Fengyun-1C, which was intentionally destroyed by a Chinese anti-satellite missile in 2007. This event dramatically increased the amount of space debris, with thousands of trackable fragments posing hazards to satellites and human spaceflight. The Fengyun 1C debris cloud has become a focal point in discussions about space sustainability and the need for international regulations to prevent the creation of new debris.

Loading next visibility...
Identifier
31097, 1999-025BGT
Orbit
SSO
Country
Flag of CNCN / PRC
Related business
Manufacturer
Unknown
Mission
Spacecraft
Bus & Motor
Unknown
Mass
Unknown
Launch date (UTC)
1999-05-10 (27 years ago)
Launch vehicle
Unknown
Launch site
Taiyaun Space Center, China (TSC)
Object type
Payload
Rocket body
Debris
Shape & HBR
Unknown shape, 0.1 m
Radar Cross Section
Small (<0.1 m²)

Expand to show TLE details & history
Last TLE update: 19 hours ago

TLE from 19 hours ago
0 FENGYUN 1C DEB
1 31097U 99025BGT 26169.05281936  .00006689  00000-0  17073-2 0  9992
2 31097  98.8678 306.1841 0014197  72.9088 341.7943 14.50800043997514
Epoch: 2026-06-18T01:16Z
TLE epoch observation values (Epoch: 2026-06-18T01:16:03.592Z)
Latitude
53.80023°
Longitude
8.62594°
Altitude
722.267 km
Speed
7.505 km/s
True Right ascension
19h 35m 46s
True Declination
53° 38' 07"
Sunlit
Object was in daylight at epoch
Visualization orbit readout
Latitude
Unknown
Longitude
Unknown
Altitude
Unknown
Speed
Unknown
Apparent Right ascension
Unknown
Apparent Declination
Unknown
Sunlit
N/A
Visualization observer readout
Local Sidereal Time
07:08:22
Azimuth
Unknown
Elevation
Unknown
Doppler factor
Unknown
Orbital elements
Apogee altitude
730.239 km
Perigee altitude
710.085 km
Semi-major axis
7,098.299 km
Eccentricity
0.00142
Inclination
98.8678°
RAAN
306.1841°
Arg. of periapsis
72.9088°
True anomaly
341.74339°
Mean anomaly
341.7943°
Eccentric anomaly
341.76885°
Mean motion
3.62921 °/min
Orbital period
99.2 mins
BSTAR
0.0017073
Loading maneuver chart data...
Computing Atmospheric mass density...

Documentation

Showing up to 5 results
|